Content
SEND FEEDBACK

Daily
Averages
Monthly
Summary
Australia

BRISBANE, QUEENSLAND


Home > Oceania > Australia > Queensland
Elevation: 13 feet     Latitude: 27 23S     Longitude: 153 07E

WEATHER
 
SELECT A DAY
Number of Records: 299,774;   Date Range: 7/1/96 - 10/24/14
 
SHARE

PRINT THIS DATA

[ ← Previous Day ]
WEATHER ALMANAC - JANUARY 31, 2013
[ Next Day → ]
[ °C ]   °F
Weather ElementAverageHighLow
Temperature77.5 °F82.4 °F (12:00 pm)73.4 °F (1:30 am)
Dewpoint69.6 °F73.4 °F (12:00 am)64.4 °F (2:30 pm)
Humidity76.6 %100 % (1:30 am)50 % (1:00 pm)
Barometer29.88 in29.94 in (9:00 am)29.83 in (3:30 pm)
Wind Speed7.8 mph11.5 mph (11:00 am)
Weather ElementAverage
Visibility7 mi
Wind DirectionENE (66.7 °)

Weather ElementTotal
Precipitation---
Cooling Degree Days12.9 (Base 65)
Growing Degree Days27.9 (Base 50)
Averaged from 65 records on January 31, 2013
WEATHER CONDITIONS BREAKOUT
WIND DIRECTION BREAKOUT
WEATHER BY HOUR - JANUARY 31, 2013
[ °C ]   °F
Local TimeTemperatureDewpointHumidityBarometerVisibilityWind DirectionWind SpeedGust SpeedPrecipitationEventsConditions
12:00 AM75.2 °F73.4 °F94 %29.92 in6.2 miSE (130°)2.3 mphMostly Cloudy
12:17 AM75.2 °F73.4 °F94 %29.92 in3.1 miSE (140°)5.8 mphRainLight Rain Showers
12:30 AM75.2 °F73.4 °F94 %29.92 in5.6 miSSE (160°)5.8 mphMostly Cloudy
1:00 AM74.0 °F73.0 °F95 %29.91 inNNE (30°)6.9 mph
1:00 AM75.2 °F73.4 °F94 %29.89 in3.7 miNNE (30°)6.9 mphLight Drizzle
1:30 AM73.4 °F73.4 °F100 %29.89 in5.6 miSE (130°)2.3 mphMostly Cloudy
2:00 AM73.4 °F73.4 °F100 %29.89 in2.5 miWSW (250°)4.6 mphRainRain Showers
2:30 AM73.4 °F73.4 °F100 %29.89 in6.2 miSouth (180°)1.2 mphMostly Cloudy
3:00 AM73.4 °F73.4 °F100 %29.89 in6.2 miSW (220°)5.8 mphMostly Cloudy
3:00 AM74.0 °F73.0 °F94 %29.89 in9.0 miSW (220°)5.8 mphMostly Cloudy
3:14 AM73.4 °F73.4 °F100 %29.89 in3.7 miSW (220°)4.6 mphRainRain Showers
3:30 AM73.4 °F73.4 °F100 %29.89 in5.6 miSW (220°)4.6 mphMostly Cloudy
4:00 AM74.0 °F72.0 °F94 %29.89 inCalm
4:00 AM73.4 °F73.4 °F100 %29.89 in6.2 miCalmMostly Cloudy
4:30 AM75.2 °F71.6 °F89 %29.89 in6.2 miENE (60°)5.8 mphMostly Cloudy
5:00 AM73.4 °F71.6 °F94 %29.89 in6.2 miNE (50°)5.8 mphMostly Cloudy
5:30 AM73.4 °F71.6 °F94 %29.89 in6.2 miNE (40°)5.8 mphMostly Cloudy
6:00 AM75.0 °F72.0 °F87 %29.92 in9.0 miNE (50°)5.8 mphMostly Cloudy
6:00 AM75.2 °F71.6 °F89 %29.92 in6.2 miNE (50°)5.8 mphMostly Cloudy
6:30 AM77.0 °F71.6 °F83 %29.92 in6.2 miNE (50°)6.9 mphMostly Cloudy
7:00 AM76.0 °F71.0 °F82 %29.93 inNE (50°)9.2 mph
7:00 AM77.0 °F71.6 °F83 %29.92 in6.2 miNE (50°)9.2 mphMostly Cloudy
7:30 AM77.0 °F71.6 °F83 %29.92 in6.2 miNE (50°)9.2 mphMostly Cloudy
8:00 AM77.0 °F69.8 °F78 %29.92 in6.2 miNE (40°)8.1 mphMostly Cloudy
8:30 AM78.8 °F71.6 °F78 %29.92 in6.2 miNE (50°)9.2 mphMostly Cloudy
9:00 AM79.0 °F71.0 °F69 %29.94 in12.0 miNE (50°)10.4 mphMostly Cloudy
9:00 AM78.8 °F71.6 °F78 %29.92 in6.2 miNE (50°)10.4 mphMostly Cloudy
9:30 AM78.8 °F68.0 °F69 %29.92 in6.2 miNNE (30°)8.1 mphMostly Cloudy
10:00 AM80.0 °F68.0 °F58 %29.93 inNNE (20°)6.9 mph
10:00 AM80.6 °F68.0 °F65 %29.92 in6.2 miNNE (20°)6.9 mphMostly Cloudy
10:30 AM80.6 °F68.0 °F65 %29.92 in6.2 miENE (60°)8.1 mphMostly Cloudy
11:00 AM80.6 °F68.0 °F65 %29.92 in6.2 miNNE (30°)11.5 mphMostly Cloudy
11:30 AM80.6 °F68.0 °F65 %29.89 in6.2 miNNE (30°)11.5 mphMostly Cloudy
12:00 PM82.0 °F68.0 °F54 %29.91 in16.0 miNNE (30°)10.4 mphMostly Cloudy
12:00 PM82.4 °F68.0 °F62 %29.89 in6.2 miNNE (30°)10.4 mphMostly Cloudy
12:30 PM82.4 °F68.0 °F62 %29.89 in6.2 miENE (70°)11.5 mphMostly Cloudy
1:00 PM82.0 °F66.0 °F50 %29.89 inENE (60°)10.4 mph
1:00 PM82.4 °F66.2 °F58 %29.89 in6.2 miENE (60°)10.4 mphMostly Cloudy
1:30 PM82.4 °F66.2 °F58 %29.86 in6.2 miNE (50°)11.5 mphMostly Cloudy
2:00 PM82.4 °F66.2 °F58 %29.86 in6.2 miNE (50°)10.4 mphMostly Cloudy
2:30 PM80.6 °F64.4 °F58 %29.86 in6.2 miNE (50°)11.5 mphMostly Cloudy
3:00 PM82.4 °F66.2 °F58 %29.86 in6.2 miNE (50°)11.5 mphMostly Cloudy
3:00 PM82.0 °F66.0 °F50 %29.86 in19.0 miNE (50°)11.5 mphPartly Cloudy
3:30 PM80.6 °F66.2 °F61 %29.83 in6.2 miNE (50°)10.4 mphMostly Cloudy
4:00 PM80.0 °F65.0 °F52 %29.85 inNE (50°)9.2 mph
4:00 PM80.6 °F66.2 °F61 %29.83 in6.2 miNE (50°)9.2 mphMostly Cloudy
4:30 PM80.6 °F66.2 °F61 %29.83 in6.2 miENE (70°)9.2 mphMostly Cloudy
5:00 PM78.8 °F66.2 °F65 %29.83 in6.2 miENE (60°)9.2 mphMostly Cloudy
5:30 PM78.8 °F66.2 °F65 %29.83 in6.2 miNE (50°)9.2 mphMostly Cloudy
6:00 PM78.8 °F68.0 °F69 %29.83 in6.2 miNE (50°)8.1 mphMostly Cloudy
6:00 PM79.0 °F68.0 °F62 %29.86 in19.0 miENE (60°)8.1 mphPartly Cloudy
6:30 PM78.8 °F69.8 °F74 %29.83 in6.2 miNE (50°)10.4 mphMostly Cloudy
7:00 PM78.0 °F68.0 °F65 %29.86 inNE (50°)9.2 mph
7:00 PM77.0 °F68.0 °F74 %29.86 in6.2 miNE (50°)9.2 mphMostly Cloudy
7:30 PM77.0 °F68.0 °F74 %29.86 in6.2 miNE (50°)9.2 mphScattered Clouds
8:00 PM77.0 °F68.0 °F74 %29.86 in6.2 miNE (50°)10.4 mphScattered Clouds
8:30 PM75.2 °F69.8 °F83 %29.86 in6.2 miNE (40°)8.1 mphScattered Clouds
9:00 PM75.2 °F68.0 °F78 %29.86 in6.2 miNE (40°)9.2 mphMostly Cloudy
9:00 PM76.0 °F69.0 °F72 %29.86 in19.0 miNE (40°)9.2 mphPartly Cloudy
9:30 PM75.2 °F69.8 °F83 %29.86 in6.2 miNNE (30°)5.8 mphMostly Cloudy
10:00 PM76.0 °F70.0 °F76 %29.87 inNE (40°)6.9 mph
10:00 PM75.2 °F69.8 °F83 %29.86 in6.2 miNE (40°)6.9 mphMostly Cloudy
10:30 PM75.2 °F69.8 °F83 %29.86 in6.2 miNE (40°)8.1 mphMostly Cloudy
11:00 PM75.2 °F69.8 °F83 %29.86 in6.2 miNNE (30°)6.9 mphMostly Cloudy
11:30 PM75.2 °F69.8 °F83 %29.83 in6.2 miNNE (20°)6.9 mphMostly Cloudy
Hourly data recorded from YBBN, located miles away from Brisbane, Queensland







STORIES FROM OUR PARTNERS